Charlevoix, MI

6:30 PM EDT on March 22, 2017 (GMT -0400)
Charlevoix Municipal

Weather History for KCVX - April, 2013

Change the Weather History Date:

Sunday, April 28, 2013

  Actual Average Record
Temperature  
Mean Temperature 52 °F -  
Max Temperature 66 °F 56 °F 66 °F (2013)
Min Temperature 39 °F 35 °F 28 °F (2006)
Degree Days  
Heating Degree Days 12    
Growing Degree Days 2 (Base 50)    
Moisture  
Dew Point 40 °F    
Average Humidity 66    
Maximum Humidity 95    
Minimum Humidity 33    
Precipitation  
Precipitation 0.00 in - - ()
Sea Level Pressure  
Sea Level Pressure 29.96 in    
Wind  
Wind Speed 4 mph (East)    
Max Wind Speed 10 mph    
Max Gust Speed -    
Visibility 10 miles    
Events      
Averages and records for this station are not official NWS values.
T = Trace of Precipitation, MM = Missing Value Source: NWS Daily Summary

Daily Weather History Graph

Daily Weather History Graph

Search for Another Location

Airport or City:

Trip Planner

Search our weather history database for the weather conditions in past years. The results will help you decide how hot, cold, wet, or windy it might be!

Date:

Astronomy

Apr. 28, 2013 Rise Set
Actual Time 6:33 AM EDT 8:43 PM EDT
Civil Twilight 6:01 AM EDT 9:16 PM EDT
Nautical Twilight 5:21 AM EDT 9:56 PM EDT
Astronomical Twilight 4:37 AM EDT 10:40 PM EDT
Moon No Moon Rise 8:44 AM EDT (4/28)
Length of Visible Light 15h 14m
Length of Day
14h 10m
Waning Gibbous, 89% of the Moon is Illuminated
Apr 28
Waning Gibbous
May 2
Last Quarter
May 9
New
May 18
First Quarter
May 25
Full

Hourly Weather History & Observations

Time (EDT) Temp. Windchill Dew Point Humidity Pressure Visibility Wind Dir Wind Speed Gust Speed Precip Events Conditions
12:14 AM 45.3 °F 44.0 °F 40.1 °F 82% 30.12 in 10.0 mi ESE 3.5 mph - N/A   Clear
12:34 AM 43.9 °F - 39.9 °F 86% 30.11 in 10.0 mi Calm Calm - N/A   Clear
12:55 AM 44.1 °F 41.5 °F 40.1 °F 86% 30.10 in 10.0 mi ESE 4.6 mph - N/A   Clear
1:14 AM 43.5 °F 40.1 °F 39.9 °F 87% 30.10 in 10.0 mi SE 5.8 mph - N/A   Clear
1:34 AM 42.6 °F - 39.4 °F 88% 30.10 in 10.0 mi Calm Calm - N/A   Clear
1:55 AM 42.1 °F - 39.2 °F 90% 30.09 in 10.0 mi Calm Calm - N/A   Clear
2:14 AM 42.8 °F 41.1 °F 39.6 °F 88% 30.08 in 10.0 mi ESE 3.5 mph - N/A   Clear
2:35 AM 42.3 °F - 39.4 °F 90% 30.07 in 10.0 mi Calm Calm - N/A   Clear
2:54 AM 41.9 °F 40.0 °F 39.2 °F 90% 30.07 in 10.0 mi ESE 3.5 mph - N/A   Clear
3:15 AM 41.0 °F 38.0 °F 39.0 °F 93% 30.06 in 10.0 mi ESE 4.6 mph - N/A   Clear
3:34 AM 41.9 °F - 39.2 °F 90% 30.06 in 10.0 mi Calm Calm - N/A   Clear
3:54 AM 41.2 °F 39.2 °F 38.8 °F 91% 30.05 in 10.0 mi ESE 3.5 mph - N/A   Clear
4:15 AM 41.4 °F - 38.7 °F 90% 30.05 in 10.0 mi Calm Calm - N/A   Clear
4:34 AM 39.6 °F 37.4 °F 37.9 °F 94% 30.05 in 10.0 mi ESE 3.5 mph - N/A   Clear
4:55 AM 42.3 °F 38.6 °F 39.4 °F 90% 30.05 in 10.0 mi ESE 5.8 mph - N/A   Clear
5:15 AM 41.9 °F - 38.8 °F 89% 30.03 in 10.0 mi Calm Calm - N/A   Clear
5:34 AM 39.7 °F 37.6 °F 37.8 °F 93% 30.03 in 10.0 mi ESE 3.5 mph - N/A   Clear
5:55 AM 40.3 °F 37.1 °F 38.8 °F 95% 30.03 in 10.0 mi ESE 4.6 mph - N/A   Clear
6:14 AM 41.4 °F 39.4 °F 38.8 °F 91% 30.03 in 10.0 mi SE 3.5 mph - N/A   Clear
6:34 AM 40.6 °F 36.7 °F 39.2 °F 95% 30.03 in 10.0 mi ESE 5.8 mph - N/A   Clear
6:55 AM 40.3 °F 36.3 °F 38.7 °F 94% 30.03 in 10.0 mi ESE 5.8 mph - N/A   Clear
7:14 AM 41.7 °F 38.8 °F 39.6 °F 92% 30.03 in 10.0 mi ESE 4.6 mph - N/A   Clear
7:34 AM 42.8 °F 41.1 °F 39.4 °F 88% 30.03 in 10.0 mi ESE 3.5 mph - N/A   Clear
7:55 AM 43.9 °F 41.3 °F 39.6 °F 85% 30.03 in 10.0 mi ESE 4.6 mph - N/A   Scattered Clouds
8:14 AM 45.1 °F 43.7 °F 40.8 °F 85% 30.03 in 10.0 mi ESE 3.5 mph - N/A   Mostly Cloudy
8:34 AM 46.4 °F 45.2 °F 41.2 °F 82% 30.03 in 10.0 mi ESE 3.5 mph - N/A   Overcast
9:14 AM 54.3 °F - 42.6 °F 65% 30.03 in 10.0 mi ESE 3.5 mph - N/A   Mostly Cloudy
9:34 AM 57.2 °F - 41.5 °F 56% 30.02 in 10.0 mi ESE 5.8 mph - N/A   Mostly Cloudy
9:55 AM 60.3 °F - 41.0 °F 49% 30.02 in 10.0 mi ESE 4.6 mph - N/A   Scattered Clouds
10:14 AM 61.3 °F - 40.1 °F 46% 30.01 in 10.0 mi East 4.6 mph - N/A   Scattered Clouds
10:35 AM 60.8 °F - 40.8 °F 48% 30.00 in 10.0 mi East 6.9 mph - N/A   Clear
10:55 AM 62.6 °F - 39.7 °F 43% 30.00 in 1.8 mi East 6.9 mph - N/A   Haze
11:14 AM 63.5 °F - 39.9 °F 42% 29.99 in 3.0 mi East 6.9 mph - N/A   Haze
11:35 AM 64.4 °F - 38.7 °F 39% 29.98 in 10.0 mi East 6.9 mph - N/A   Scattered Clouds
11:54 AM 65.3 °F - 38.7 °F 38% 29.97 in 10.0 mi East 6.9 mph - N/A   Scattered Clouds
12:14 PM 66.4 °F - 38.1 °F 35% 29.97 in 10.0 mi East 6.9 mph - N/A   Overcast
12:35 PM 65.7 °F - 36.0 °F 33% 29.97 in 10.0 mi East 6.9 mph - N/A   Overcast
12:54 PM 65.7 °F - 35.8 °F 33% 29.96 in 10.0 mi East 4.6 mph - N/A   Overcast
1:14 PM 61.0 °F - 39.9 °F 46% 29.96 in 10.0 mi NNW 4.6 mph - N/A   Overcast
1:35 PM 59.4 °F - 38.7 °F 46% 29.95 in 10.0 mi NNW 3.5 mph - N/A   Overcast
1:54 PM 59.9 °F - 39.2 °F 46% 29.94 in 10.0 mi NNW 3.5 mph - N/A   Overcast
2:14 PM 61.5 °F - 38.8 °F 43% 29.93 in 10.0 mi WSW 3.5 mph - N/A   Overcast
2:35 PM 66.2 °F - 37.8 °F 35% 29.92 in 5.0 mi NNW 8.1 mph - N/A   Haze
2:54 PM 64.4 °F - 40.8 °F 42% 29.91 in 10.0 mi NNW 6.9 mph - N/A   Scattered Clouds
3:14 PM 57.0 °F - 38.5 °F 50% 29.90 in 10.0 mi North 10.4 mph - N/A   Scattered Clouds
3:35 PM 59.2 °F - 39.6 °F 48% 29.90 in 10.0 mi North 5.8 mph - N/A   Scattered Clouds
3:54 PM 58.6 °F - 40.1 °F 50% 29.89 in 10.0 mi North 6.9 mph - N/A   Scattered Clouds
4:14 PM 56.1 °F - 38.8 °F 52% 29.88 in 10.0 mi North 8.1 mph - N/A   Clear
4:35 PM 59.4 °F - 38.3 °F 46% 29.87 in 10.0 mi North 10.4 mph - N/A   Clear
4:54 PM 62.8 °F - 37.4 °F 39% 29.87 in 10.0 mi North 9.2 mph - N/A   Scattered Clouds
5:15 PM 56.8 °F - 39.0 °F 51% 29.86 in 10.0 mi North 9.2 mph - N/A   Mostly Cloudy
5:35 PM 55.2 °F - 39.2 °F 55% 29.86 in 10.0 mi Calm Calm - N/A   Overcast
5:54 PM 55.4 °F - 38.7 °F 53% 29.85 in 10.0 mi North 3.5 mph - N/A   Mostly Cloudy
6:15 PM 64.2 °F - 37.9 °F 38% 29.84 in 10.0 mi North 5.8 mph - N/A   Scattered Clouds
6:34 PM 65.5 °F - 37.6 °F 36% 29.84 in 10.0 mi NNE 4.6 mph - N/A   Mostly Cloudy
6:54 PM 65.3 °F - 37.9 °F 36% 29.83 in 10.0 mi NNW 4.6 mph - N/A   Scattered Clouds
7:15 PM 57.9 °F - 39.2 °F 50% 29.84 in 10.0 mi Calm Calm - N/A   Clear
7:34 PM 56.8 °F - 40.3 °F 54% 29.84 in 10.0 mi Calm Calm - N/A   Clear
7:54 PM 53.4 °F - 40.6 °F 62% 29.84 in 10.0 mi Calm Calm - N/A   Clear
8:15 PM 52.3 °F - 41.2 °F 66% 29.84 in 10.0 mi Calm Calm - N/A   Clear
8:34 PM 50.0 °F - 40.8 °F 71% 29.84 in 10.0 mi Calm Calm - N/A   Clear
8:54 PM 50.0 °F - 41.0 °F 71% 29.84 in 10.0 mi Calm Calm - N/A   Scattered Clouds
9:15 PM 50.9 °F - 41.2 °F 69% 29.85 in 10.0 mi WNW 5.8 mph - N/A   Scattered Clouds
9:34 PM 48.4 °F - 40.6 °F 75% 29.86 in 10.0 mi WSW 4.6 mph - N/A   Clear
9:54 PM 48.9 °F - 40.6 °F 73% 29.87 in 10.0 mi West 8.1 mph - N/A   Scattered Clouds
10:15 PM 46.9 °F - 40.3 °F 78% 29.87 in 10.0 mi West 3.5 mph - N/A   Mostly Cloudy
10:34 PM 48.7 °F - 41.0 °F 75% 29.86 in 10.0 mi SSE 3.5 mph - N/A   Scattered Clouds
10:55 PM 48.6 °F - 41.9 °F 78% 29.86 in 10.0 mi Calm Calm - N/A   Clear
11:14 PM 48.7 °F - 42.4 °F 79% 29.86 in 10.0 mi SSE 5.8 mph - N/A   Clear
11:34 PM 52.9 °F - 43.2 °F 70% 29.86 in 10.0 mi SSE 5.8 mph - N/A   Clear
11:55 PM 55.9 °F - 44.6 °F 66% 29.86 in 10.0 mi SE 6.9 mph - N/A   Clear